Dewpoint
57 66 72 71 71 71 71 71 71 71 71 70 70 70 70 70 70 70 69 69 70 68 69 69 69 69 70 70 69 71 71 71 71 71 70 69 69 69 69 70 69 65 70
60 66 71 71 70 70 70 70 71 70 70 69 69 69 70 70 70 70 70 69 67 68 68 68 69 69 69 69 69 70 70 70 70 70 69 69 69 69 69 70 69 68 70
63 66 67 71 71 70 69 69 70 70 69 69 69 68 67 69 70 69 69 69 68 68 68 68 69 69 69 70 70 70 69 69 69 69 69 64 65 69 69 69 69 69 69
64 65 66 71 71 71 71 71 70 69 69 68 69 68 68 68 68 66 66 68 67 67 68 69 69 68 69 69 68 69 69 69 68 68 66 66 66 68 68 68 68 68 68
64 66 68 70 70 70 71 70 69 69 69 68 67 67 66 66 65 64 66 66 65 67 68 68 68 67 67 66 66 67 67 67 68 65 65 66 67 67 68 68 68 68 68
66 67 68 69 70 70 69 68 68 68 67 67 66 65 64 64 64 64 64 65 64 67 67 66 65 65 64 65 65 65 64 66 65 63 65 65 65 66 66 66 66 67 67
67 68 68 69 69 69 68 66 66 66 66 65 64 63 62 63 63 62 62 63 64 66 65 65 64 64 64 64 64 64 64 65 59 60 62 64 65 66 67 67 67 66 67
67 68 67 69 69 68 67 66 66 66 65 64 64 62 61 61 61 61 61 62 64 64 64 64 64 64 63 63 64 63 63 64 56 56 59 63 65 65 65 64 64 64 64
67 68 68 67 66 66 66 65 65 65 65 64 63 62 62 63 62 61 61 63 64 63 63 63 63 62 62 62 63 61 61 62 54 56 56 60 63 63 63 62 62 63 63
67 67 67 66 64 64 63 64 64 64 63 62 61 60 62 62 61 60 61 61 62 62 62 62 62 61 60 61 60 59 60 61 54 57 58 60 62 62 60 60 60 60 60
65 65 65 63 62 62 60 59 60 60 60 60 58 59 59 55 55 56 59 60 61 61 62 62 61 60 59 59 58 59 61 55 54 55 57 61 60 59 58 57 57 57 57
63 64 64 62 61 60 55 59 59 56 57 56 56 56 55 56 54 52 56 59 59 60 60 60 61 60 57 49 50 56 49 54 52 52 57 60 59 58 56 55 54 54 54
62 62 62 62 65 63 60 59 58 57 57 57 56 55 55 52 53 49 51 51 54 58 50 53 54 52 51 50 49 49 49 48 48 50 57 59 59 58 56 54 52 52 52
60 61 62 62 64 65 60 58 58 56 56 54 54 56 55 51 53 51 47 48 49 50 52 51 51 53 53 51 50 49 48 45 44 48 54 56 56 56 56 54 52 51 50
59 60 61 62 63 62 62 59 59 57 55 54 53 54 52 50 52 50 50 46 47 49 50 50 51 50 51 50 48 48 48 47 47 47 51 53 52 52 53 53 51 50 49
59 59 61 61 63 62 60 61 59 57 56 53 52 52 51 49 50 48 47 44 43 46 48 48 49 49 48 48 47 46 45 45 46 47 46 48 49 49 49 49 49 49 48
59 59 61 61 62 61 60 59 57 55 53 51 50 52 49 48 48 47 43 41 41 46 50 51 50 48 47 46 46 45 43 44 43 44 43 45 46 47 46 45 47 47 47
59 59 60 58 60 60 60 57 54 53 52 50 49 48 46 45 46 44 40 39 42 44 45 48 48 45 45 44 43 41 41 41 42 42 42 41 40 39 41 42 45 45 45
58 59 59 59 59 60 59 56 55 55 51 49 48 45 45 43 42 40 38 42 45 40 44 46 46 46 44 43 41 40 40 38 38 36 39 40 39 37 34 41 42 41 42
58 60 59 58 59 59 57 56 53 52 50 49 46 43 44 41 41 40 40 44 42 40 43 44 47 45 43 40 35 38 39 39 38 37 36 34 37 36 32 33 37 37 41
60 59 58 58 59 57 55 54 52 50 49 47 44 47 43 41 41 42 39 43 41 41 44 48 46 46 41 40 39 39 39 40 39 36 35 33 31 31 33 31 29 29 35
59 60 58 58 58 57 55 54 52 50 48 46 45 46 43 42 43 40 41 41 42 43 47 47 46 41 40 41 39 37 35 36 35 35 34 33 34 28 28 31 32 31 30
60 60 58 58 58 57 55 53 51 50 49 45 45 44 43 41 42 40 41 40 44 44 44 46 45 43 39 41 45 39 36 34 36 35 35 32 34 31 30 31 31 29 30
61 60 59 58 57 57 56 53 51 47 45 44 44 43 41 41 40 41 42 42 44 42 45 45 43 44 42 39 40 40 42 40 32 33 33 33 33 32 35 31 30 30 29
61 60 60 59 57 57 55 53 51 49 46 44 44 44 42 42 41 39 41 42 44 40 45 46 45 45 42 39 38 36 37 34 36 31 27 32 31 29 31 32 31 29 27
61 61 61 59 57 57 55 55 54 53 50 46 46 43 41 40 40 40 40 42 44 42 43 42 44 44 42 39 36 35 33 31 29 29 27 29 29 31 30 30 31 28 27
Lifted_Index
-3 -4 -5 -5 -5 -5 -5 -5 -5 -5 -5 -5 -5 -5 -5 -6 -5 -5 -5 -5 -5 -5 -5 -5 -5 -5 -5 -5 -5 -6 -6 -6 -5 -5 -5 -5 -4 -4 -4 -4 -4 -4 -4
-4 -4 -5 -5 -5 -5 -5 -5 -5 -5 -5 -4 -4 -5 -5 -5 -5 -5 -5 -5 -5 -5 -5 -5 -5 -5 -5 -5 -5 -5 -5 -5 -5 -5 -5 -4 -4 -4 -4 -4 -4 -4 -4
-4 -4 -4 -4 -4 -4 -4 -5 -5 -5 -4 -4 -4 -4 -4 -5 -5 -5 -4 -4 -4 -4 -5 -5 -5 -5 -5 -5 -5 -5 -5 -4 -4 -4 -4 -4 -4 -4 -4 -4 -4 -4 -4
-4 -4 -4 -4 -4 -4 -4 -4 -4 -4 -4 -4 -4 -4 -4 -4 -4 -3 -3 -3 -4 -4 -5 -5 -5 -4 -5 -5 -5 -4 -4 -4 -4 -4 -4 -4 -4 -4 -4 -3 -3 -3 -3
-4 -4 -4 -4 -4 -4 -4 -4 -3 -3 -3 -3 -3 -3 -3 -3 -2 -2 -2 -2 -3 -4 -4 -4 -4 -4 -4 -4 -4 -4 -3 -3 -3 -4 -4 -4 -3 -3 -3 -3 -3 -3 -3
-4 -4 -3 -3 -4 -4 -3 -3 -2 -2 -1 -1 -1 -1 -1 -1 -1 -0 -0 -1 -2 -3 -3 -3 -2 -3 -3 -3 -3 -3 -2 -2 -3 -3 -3 -3 -3 -3 -2 -2 -2 -2 -3
-4 -4 -3 -3 -3 -3 -2 -2 -1 -1 -0 -0 0 0 0 1 1 1 1 0 -1 -1 -1 -1 -1 -1 -1 -1 -1 -1 -1 -1 -1 -1 -2 -2 -2 -2 -2 -2 -2 -2 -2
-4 -4 -3 -3 -3 -2 -1 -1 -0 -0 0 1 1 1 1 2 2 2 2 1 0 -0 0 0 0 0 0 1 1 1 1 1 1 0 -0 -1 -1 -1 -1 -1 -1 -1 -1
-3 -3 -3 -3 -2 -1 -0 0 1 1 1 1 2 2 2 3 3 3 3 2 1 1 1 1 1 2 2 2 3 3 2 2 2 2 1 1 1 1 1 1 1 0 0
-3 -3 -3 -2 -2 -1 1 1 2 2 2 2 3 3 3 3 3 3 3 3 2 2 2 2 2 3 3 4 4 4 3 3 2 2 2 2 2 3 3 3 2 2 2
-2 -2 -2 -2 -1 -0 1 2 2 3 3 3 4 4 3 3 4 4 4 4 3 3 3 3 3 4 4 5 5 4 4 3 3 3 3 3 3 4 5 5 5 4 4
-1 -1 -1 -1 -1 0 1 2 2 2 3 3 3 3 4 4 4 5 5 5 4 4 4 4 4 4 4 5 5 5 4 4 5 5 4 4 4 5 6 7 7 7 6
-0 -1 -1 -1 -1 -0 0 1 1 2 2 3 4 4 4 5 5 6 6 6 5 5 5 4 4 4 4 5 5 5 5 6 6 6 5 5 5 5 6 7 8 9 9
-0 -0 -0 -1 -1 -1 -0 0 1 2 2 3 4 5 5 5 5 6 6 6 6 5 5 5 5 4 5 5 6 6 6 7 7 7 7 7 7 7 7 8 9 10 10
-0 -0 -0 -1 -1 -1 -0 0 1 2 3 4 5 5 6 6 6 6 7 7 7 6 6 5 5 5 6 6 7 7 7 8 8 8 8 9 9 9 9 9 9 10 10
-0 -0 -0 -0 -0 -0 0 1 1 3 3 4 5 6 7 8 8 8 8 9 8 7 6 6 6 6 6 7 8 8 9 9 9 9 9 10 11 11 11 11 11 11 11
-0 -0 -0 -0 -0 0 0 1 2 3 4 5 6 7 8 9 9 9 10 10 9 8 7 6 6 7 7 8 9 9 10 10 10 10 10 10 11 12 13 13 13 12 12
-1 -1 -0 -0 0 0 1 2 3 4 5 6 7 8 10 10 10 11 11 11 10 9 8 7 7 8 8 9 10 10 11 11 11 11 11 11 12 12 14 14 14 14 14
-1 -1 -0 -0 0 1 1 2 3 4 5 6 8 9 11 11 12 12 11 11 11 10 9 8 8 9 9 10 11 11 12 12 12 12 12 12 13 13 14 15 15 15 15
-2 -1 -0 -0 0 1 1 2 3 4 5 7 8 10 11 12 12 12 12 11 11 11 10 9 9 10 10 11 12 12 12 12 12 13 13 13 14 14 15 15 15 16 16
-2 -1 -0 -0 0 1 1 2 2 3 5 7 9 10 12 12 13 13 12 12 11 11 10 10 10 10 11 12 12 12 12 13 13 13 14 14 14 15 15 15 16 16 16
-3 -2 -1 0 0 1 2 2 3 4 6 7 9 10 12 13 13 13 13 12 11 11 10 10 11 11 12 12 12 11 11 12 12 13 14 14 15 15 15 15 16 16 16
-3 -2 -1 -0 0 1 2 3 4 5 7 8 9 10 12 13 13 13 13 12 12 11 11 11 11 11 12 12 11 11 11 11 11 12 14 14 15 15 15 15 16 16 17
-3 -2 -2 -1 -0 1 2 3 4 5 7 8 9 10 11 12 13 13 13 13 12 11 11 11 11 11 11 11 11 11 11 11 11 12 13 14 14 15 15 15 15 16 17
-3 -2 -2 -1 -0 0 1 3 4 5 6 7 8 9 10 11 12 12 13 13 12 12 12 11 11 11 11 12 12 12 12 12 12 12 13 13 14 15 15 15 15 16 16
-3 -2 -2 -1 -0 0 1 3 4 5 6 7 8 9 10 10 11 12 12 13 13 12 12 12 12 12 12 12 13 13 13 13 13 13 13 13 14 14 15 15 15 15 16